QPF
0.00 0.00 0.00 0.00 0.00 0.00 0.00 0.00 0.00 0.00 0.00 0.01 0.01 0.01 0.02 0.02 0.02 0.02 0.01 0.02 0.02 0.02 0.03 0.04 0.04 0.04 0.05 0.05 0.05 0.05 0.05 0.06 0.06 0.04 0.03 0.02 0.03 0.04 0.05 0.05 0.07 0.08 0.09
0.00 0.00 0.00 0.00 0.00 0.00 0.00 0.00 0.00 0.00 0.00 0.00 0.01 0.01 0.02 0.02 0.02 0.02 0.02 0.03 0.04 0.05 0.06 0.05 0.04 0.05 0.04 0.03 0.04 0.06 0.05 0.04 0.05 0.05 0.04 0.03 0.03 0.03 0.03 0.05 0.06 0.09 0.12
0.00 0.00 0.00 0.00 0.00 0.00 0.00 0.00 0.00 0.00 0.00 0.01 0.01 0.01 0.01 0.01 0.02 0.03 0.05 0.04 0.04 0.05 0.05 0.05 0.04 0.04 0.03 0.02 0.03 0.06 0.06 0.06 0.06 0.05 0.04 0.03 0.03 0.03 0.03 0.05 0.06 0.07 0.10
0.00 0.00 0.00 0.00 0.00 0.00 0.00 0.00 0.00 0.00 0.01 0.02 0.02 0.02 0.01 0.02 0.03 0.05 0.06 0.05 0.05 0.05 0.05 0.05 0.04 0.03 0.02 0.01 0.01 0.03 0.05 0.07 0.06 0.06 0.04 0.03 0.03 0.03 0.03 0.04 0.05 0.06 0.06
0.00 0.00 0.00 0.00 0.00 0.00 0.00 0.00 0.00 0.01 0.02 0.03 0.03 0.02 0.03 0.06 0.09 0.10 0.09 0.08 0.07 0.05 0.05 0.04 0.02 0.02 0.02 0.01 0.01 0.02 0.03 0.05 0.06 0.07 0.05 0.04 0.03 0.03 0.02 0.02 0.03 0.04 0.05
0.00 0.00 0.00 0.00 0.00 0.00 0.00 0.00 0.01 0.02 0.03 0.05 0.05 0.04 0.07 0.13 0.14 0.08 0.07 0.06 0.05 0.05 0.04 0.03 0.01 0.02 0.01 0.02 0.02 0.02 0.02 0.03 0.04 0.06 0.06 0.06 0.04 0.03 0.03 0.02 0.03 0.03 0.03
0.00 0.00 0.01 0.01 0.01 0.00 0.00 0.00 0.01 0.02 0.03 0.05 0.04 0.02 0.03 0.04 0.04 0.05 0.06 0.06 0.06 0.05 0.03 0.01 0.01 0.01 0.01 0.02 0.02 0.02 0.03 0.04 0.05 0.05 0.06 0.07 0.06 0.05 0.03 0.04 0.04 0.03 0.04
0.00 0.00 0.01 0.01 0.01 0.01 0.01 0.01 0.01 0.02 0.03 0.03 0.02 0.01 0.01 0.01 0.03 0.04 0.05 0.06 0.06 0.05 0.02 0.01 0.01 0.01 0.01 0.01 0.01 0.02 0.03 0.05 0.06 0.06 0.06 0.05 0.05 0.06 0.05 0.05 0.05 0.03 0.04
0.00 0.00 0.00 0.00 0.01 0.01 0.01 0.01 0.01 0.02 0.02 0.02 0.01 0.01 0.01 0.02 0.02 0.03 0.03 0.04 0.04 0.03 0.02 0.01 0.01 0.01 0.01 0.01 0.01 0.02 0.03 0.03 0.04 0.04 0.04 0.05 0.06 0.06 0.06 0.06 0.05 0.05 0.03
0.00 0.00 0.00 0.00 0.01 0.01 0.01 0.00 0.01 0.02 0.01 0.01 0.01 0.01 0.01 0.02 0.03 0.02 0.03 0.04 0.03 0.01 0.01 0.01 0.01 0.01 0.01 0.00 0.00 0.01 0.01 0.01 0.04 0.04 0.04 0.05 0.05 0.04 0.05 0.06 0.05 0.05 0.04
0.00 0.00 0.00 0.00 0.00 0.00 0.00 0.01 0.01 0.01 0.00 0.00 0.01 0.01 0.02 0.02 0.02 0.02 0.03 0.04 0.03 0.02 0.01 0.01 0.01 0.01 0.00 0.00 0.01 0.01 0.01 0.02 0.04 0.04 0.03 0.03 0.03 0.03 0.03 0.05 0.05 0.05 0.05
0.00 0.00 0.00 0.00 0.00 0.00 0.00 0.00 0.00 0.01 0.00 0.01 0.01 0.02 0.02 0.01 0.01 0.02 0.03 0.03 0.02 0.01 0.01 0.01 0.01 0.01 0.01 0.01 0.01 0.01 0.01 0.01 0.02 0.03 0.03 0.02 0.02 0.02 0.03 0.05 0.06 0.05 0.05
0.00 0.00 0.00 0.01 0.00 0.00 0.00 0.00 0.00 0.01 0.01 0.02 0.02 0.03 0.02 0.01 0.01 0.02 0.02 0.01 0.01 0.01 0.00 0.01 0.00 0.00 0.01 0.01 0.01 0.01 0.01 0.01 0.02 0.03 0.03 0.02 0.02 0.02 0.03 0.05 0.05 0.05 0.07
0.00 0.00 0.01 0.01 0.01 0.01 0.01 0.01 0.01 0.02 0.04 0.05 0.05 0.03 0.03 0.02 0.01 0.02 0.01 0.01 0.01 0.01 0.01 0.01 0.00 0.00 0.00 0.01 0.01 0.01 0.01 0.01 0.02 0.02 0.03 0.02 0.03 0.02 0.03 0.05 0.08 0.09 0.09
0.00 0.00 0.00 0.00 0.01 0.00 0.01 0.01 0.02 0.04 0.04 0.05 0.05 0.03 0.03 0.02 0.02 0.02 0.03 0.02 0.01 0.01 0.01 0.01 0.00 0.01 0.01 0.01 0.02 0.02 0.01 0.01 0.01 0.02 0.02 0.03 0.03 0.03 0.04 0.05 0.05 0.07 0.08
0.00 0.00 0.00 0.01 0.01 0.01 0.02 0.03 0.04 0.05 0.06 0.04 0.02 0.03 0.03 0.03 0.02 0.02 0.03 0.03 0.01 0.01 0.01 0.00 0.01 0.01 0.01 0.01 0.02 0.03 0.02 0.02 0.03 0.03 0.02 0.02 0.02 0.04 0.05 0.05 0.06 0.05 0.05
0.00 0.00 0.00 0.01 0.02 0.02 0.04 0.05 0.04 0.03 0.06 0.04 0.03 0.03 0.02 0.02 0.02 0.03 0.03 0.02 0.02 0.01 0.01 0.01 0.01 0.02 0.02 0.02 0.02 0.03 0.03 0.03 0.03 0.03 0.02 0.02 0.02 0.03 0.05 0.06 0.06 0.06 0.06
0.00 0.01 0.01 0.01 0.02 0.01 0.02 0.03 0.03 0.03 0.05 0.05 0.04 0.04 0.04 0.02 0.03 0.04 0.03 0.01 0.01 0.01 0.01 0.02 0.02 0.01 0.02 0.02 0.03 0.04 0.04 0.03 0.03 0.04 0.03 0.02 0.02 0.04 0.04 0.05 0.05 0.04 0.04
0.01 0.01 0.02 0.02 0.02 0.02 0.02 0.03 0.03 0.02 0.02 0.02 0.02 0.02 0.03 0.03 0.03 0.03 0.03 0.02 0.02 0.01 0.01 0.01 0.01 0.01 0.01 0.02 0.03 0.03 0.03 0.02 0.02 0.02 0.03 0.03 0.03 0.04 0.05 0.05 0.05 0.03 0.02
0.01 0.01 0.01 0.02 0.03 0.03 0.02 0.03 0.01 0.01 0.01 0.01 0.02 0.01 0.01 0.01 0.01 0.01 0.02 0.02 0.02 0.03 0.03 0.02 0.02 0.02 0.01 0.02 0.02 0.02 0.02 0.02 0.02 0.02 0.02 0.03 0.04 0.04 0.04 0.04 0.04 0.03 0.02
0.01 0.01 0.01 0.02 0.02 0.02 0.01 0.01 0.01 0.01 0.02 0.02 0.02 0.01 0.02 0.02 0.02 0.02 0.02 0.02 0.02 0.03 0.04 0.05 0.04 0.03 0.02 0.02 0.02 0.02 0.02 0.03 0.03 0.03 0.04 0.05 0.05 0.05 0.04 0.03 0.03 0.03 0.03
0.01 0.01 0.01 0.01 0.02 0.01 0.01 0.01 0.01 0.02 0.03 0.02 0.02 0.02 0.03 0.03 0.02 0.02 0.02 0.02 0.02 0.02 0.02 0.06 0.10 0.08 0.04 0.02 0.02 0.03 0.05 0.04 0.04 0.05 0.05 0.04 0.04 0.03 0.02 0.02 0.03 0.03 0.03
0.01 0.02 0.02 0.02 0.02 0.01 0.01 0.02 0.02 0.02 0.02 0.03 0.03 0.03 0.04 0.03 0.02 0.02 0.03 0.03 0.02 0.02 0.01 0.02 0.04 0.05 0.04 0.03 0.03 0.06 0.08 0.08 0.07 0.08 0.07 0.05 0.04 0.02 0.02 0.02 0.02 0.01 0.01
0.02 0.02 0.02 0.02 0.02 0.01 0.02 0.02 0.03 0.03 0.03 0.02 0.03 0.03 0.03 0.03 0.02 0.02 0.03 0.04 0.04 0.02 0.01 0.01 0.02 0.02 0.02 0.02 0.03 0.05 0.08 0.08 0.09 0.08 0.06 0.05 0.04 0.03 0.03 0.02 0.01 0.01 0.01
0.03 0.04 0.03 0.02 0.02 0.02 0.02 0.02 0.02 0.04 0.04 0.03 0.03 0.03 0.02 0.02 0.02 0.02 0.02 0.03 0.03 0.02 0.02 0.01 0.01 0.02 0.02 0.03 0.05 0.06 0.08 0.08 0.07 0.06 0.05 0.04 0.02 0.02 0.02 0.01 0.01 0.01 0.01
0.05 0.05 0.06 0.05 0.04 0.03 0.03 0.03 0.03 0.04 0.05 0.05 0.04 0.04 0.03 0.03 0.02 0.02 0.02 0.02 0.02 0.02 0.02 0.02 0.01 0.01 0.02 0.03 0.04 0.05 0.06 0.05 0.04 0.04 0.04 0.03 0.01 0.01 0.01 0.01 0.01 0.01 0.01
MSLP
1011.56 1011.74 1011.91 1012.06 1012.17 1012.26 1012.37 1012.50 1012.70 1012.97 1013.30 1013.66 1014.04 1014.38 1014.68 1014.91 1015.08 1015.21 1015.33 1015.46 1015.63 1015.84 1016.11 1016.41 1016.72 1017.03 1017.33 1017.60 1017.84 1018.07 1018.28 1018.49 1018.69 1018.87 1019.02 1019.12 1019.17 1019.15 1019.08 1018.97 1018.86 1018.76 1018.71
1011.17 1011.46 1011.72 1011.94 1012.09 1012.19 1012.29 1012.41 1012.59 1012.86 1013.21 1013.61 1014.03 1014.42 1014.74 1014.97 1015.11 1015.20 1015.26 1015.33 1015.46 1015.64 1015.90 1016.21 1016.56 1016.90 1017.22 1017.51 1017.76 1017.98 1018.18 1018.38 1018.57 1018.76 1018.93 1019.06 1019.12 1019.12 1019.05 1018.91 1018.74 1018.57 1018.42
1010.54 1010.94 1011.33 1011.64 1011.86 1012.00 1012.11 1012.23 1012.42 1012.70 1013.07 1013.51 1013.97 1014.40 1014.75 1014.99 1015.12 1015.17 1015.19 1015.22 1015.30 1015.46 1015.71 1016.02 1016.38 1016.74 1017.08 1017.37 1017.62 1017.82 1018.00 1018.18 1018.37 1018.57 1018.75 1018.91 1019.02 1019.04 1018.98 1018.83 1018.63 1018.39 1018.17
1009.64 1010.17 1010.68 1011.11 1011.42 1011.63 1011.77 1011.92 1012.12 1012.43 1012.83 1013.31 1013.82 1014.30 1014.68 1014.95 1015.08 1015.12 1015.11 1015.10 1015.15 1015.29 1015.52 1015.83 1016.20 1016.56 1016.90 1017.18 1017.41 1017.59 1017.74 1017.90 1018.08 1018.28 1018.49 1018.68 1018.82 1018.89 1018.85 1018.71 1018.49 1018.22 1017.94
1008.54 1009.17 1009.80 1010.35 1010.76 1011.04 1011.24 1011.43 1011.67 1012.01 1012.45 1012.98 1013.54 1014.07 1014.51 1014.81 1014.97 1015.02 1015.00 1014.97 1015.00 1015.11 1015.32 1015.62 1015.97 1016.32 1016.65 1016.91 1017.11 1017.26 1017.39 1017.53 1017.69 1017.89 1018.11 1018.34 1018.52 1018.62 1018.62 1018.51 1018.30 1018.01 1017.70
1007.34 1008.04 1008.77 1009.41 1009.92 1010.28 1010.54 1010.78 1011.06 1011.43 1011.92 1012.50 1013.12 1013.71 1014.20 1014.55 1014.75 1014.82 1014.81 1014.78 1014.79 1014.88 1015.07 1015.35 1015.67 1016.00 1016.30 1016.54 1016.72 1016.84 1016.94 1017.05 1017.20 1017.39 1017.62 1017.87 1018.08 1018.22 1018.26 1018.19 1018.00 1017.73 1017.42
1006.16 1006.91 1007.70 1008.41 1008.98 1009.41 1009.72 1010.00 1010.31 1010.72 1011.25 1011.87 1012.54 1013.19 1013.74 1014.15 1014.40 1014.51 1014.53 1014.51 1014.51 1014.59 1014.75 1015.00 1015.29 1015.59 1015.86 1016.07 1016.22 1016.32 1016.39 1016.48 1016.61 1016.79 1017.02 1017.28 1017.51 1017.68 1017.76 1017.72 1017.57 1017.33 1017.04
1005.14 1005.89 1006.70 1007.44 1008.05 1008.51 1008.86 1009.16 1009.50 1009.93 1010.48 1011.14 1011.85 1012.54 1013.15 1013.62 1013.92 1014.08 1014.13 1014.13 1014.14 1014.21 1014.35 1014.57 1014.83 1015.10 1015.35 1015.53 1015.66 1015.74 1015.79 1015.86 1015.97 1016.13 1016.35 1016.59 1016.82 1017.01 1017.11 1017.11 1016.99 1016.80 1016.55
1004.37 1005.09 1005.87 1006.61 1007.21 1007.67 1008.02 1008.33 1008.67 1009.11 1009.68 1010.34 1011.08 1011.80 1012.45 1012.97 1013.32 1013.53 1013.62 1013.66 1013.69 1013.76 1013.89 1014.09 1014.34 1014.58 1014.81 1014.98 1015.09 1015.15 1015.19 1015.24 1015.33 1015.47 1015.65 1015.87 1016.09 1016.26 1016.37 1016.38 1016.30 1016.14 1015.94
1003.88 1004.54 1005.26 1005.95 1006.51 1006.95 1007.28 1007.57 1007.90 1008.33 1008.89 1009.55 1010.28 1011.02 1011.69 1012.24 1012.64 1012.90 1013.04 1013.12 1013.18 1013.28 1013.42 1013.62 1013.86 1014.10 1014.31 1014.48 1014.58 1014.64 1014.68 1014.71 1014.77 1014.87 1015.02 1015.19 1015.37 1015.51 1015.59 1015.60 1015.53 1015.40 1015.23
1003.66 1004.23 1004.87 1005.48 1005.98 1006.35 1006.65 1006.92 1007.22 1007.63 1008.16 1008.80 1009.51 1010.24 1010.91 1011.48 1011.92 1012.22 1012.42 1012.56 1012.67 1012.81 1012.98 1013.21 1013.46 1013.71 1013.93 1014.10 1014.22 1014.28 1014.31 1014.33 1014.36 1014.42 1014.52 1014.63 1014.74 1014.83 1014.86 1014.84 1014.76 1014.63 1014.48
1003.63 1004.10 1004.63 1005.14 1005.55 1005.87 1006.12 1006.36 1006.65 1007.03 1007.53 1008.13 1008.81 1009.50 1010.16 1010.73 1011.19 1011.54 1011.80 1012.00 1012.19 1012.38 1012.62 1012.88 1013.17 1013.44 1013.69 1013.88 1014.01 1014.09 1014.12 1014.12 1014.13 1014.15 1014.19 1014.23 1014.26 1014.28 1014.25 1014.17 1014.05 1013.91 1013.76
1003.69 1004.05 1004.46 1004.85 1005.18 1005.45 1005.66 1005.88 1006.15 1006.51 1006.98 1007.54 1008.18 1008.83 1009.46 1010.02 1010.49 1010.88 1011.20 1011.47 1011.74 1012.02 1012.32 1012.64 1012.98 1013.30 1013.57 1013.79 1013.94 1014.03 1014.07 1014.07 1014.06 1014.04 1014.02 1013.99 1013.95 1013.88 1013.78 1013.63 1013.46 1013.28 1013.11
1003.75 1003.98 1004.26 1004.55 1004.80 1005.02 1005.22 1005.43 1005.71 1006.06 1006.51 1007.04 1007.62 1008.23 1008.81 1009.36 1009.84 1010.26 1010.63 1010.98 1011.32 1011.68 1012.06 1012.46 1012.84 1013.20 1013.51 1013.76 1013.94 1014.04 1014.09 1014.09 1014.06 1014.02 1013.96 1013.88 1013.77 1013.63 1013.45 1013.24 1013.01 1012.78 1012.58
1003.73 1003.81 1003.97 1004.15 1004.34 1004.53 1004.73 1004.97 1005.27 1005.64 1006.08 1006.58 1007.13 1007.69 1008.23 1008.75 1009.23 1009.67 1010.09 1010.50 1010.92 1011.36 1011.80 1012.26 1012.69 1013.09 1013.42 1013.69 1013.89 1014.01 1014.07 1014.08 1014.06 1014.00 1013.92 1013.81 1013.66 1013.47 1013.24 1012.97 1012.69 1012.42 1012.19
1003.57 1003.51 1003.54 1003.62 1003.76 1003.94 1004.17 1004.46 1004.80 1005.20 1005.66 1006.15 1006.67 1007.20 1007.71 1008.19 1008.66 1009.12 1009.57 1010.03 1010.51 1011.00 1011.50 1011.99 1012.46 1012.87 1013.22 1013.50 1013.70 1013.83 1013.91 1013.94 1013.93 1013.90 1013.82 1013.71 1013.55 1013.34 1013.09 1012.79 1012.48 1012.19 1011.94
1003.27 1003.05 1002.95 1002.95 1003.05 1003.24 1003.51 1003.86 1004.27 1004.72 1005.22 1005.72 1006.23 1006.73 1007.22 1007.69 1008.15 1008.61 1009.09 1009.58 1010.09 1010.62 1011.14 1011.64 1012.10 1012.51 1012.85 1013.11 1013.31 1013.45 1013.55 1013.61 1013.63 1013.63 1013.60 1013.52 1013.39 1013.20 1012.95 1012.66 1012.35 1012.06 1011.80
1002.83 1002.46 1002.23 1002.16 1002.23 1002.44 1002.76 1003.17 1003.65 1004.18 1004.72 1005.26 1005.78 1006.28 1006.76 1007.23 1007.69 1008.16 1008.64 1009.15 1009.68 1010.21 1010.72 1011.21 1011.64 1012.01 1012.31 1012.55 1012.73 1012.87 1012.98 1013.07 1013.15 1013.20 1013.23 1013.21 1013.14 1013.00 1012.80 1012.56 1012.28 1012.01 1011.78
1002.30 1001.78 1001.44 1001.30 1001.34 1001.56 1001.93 1002.41 1002.97 1003.57 1004.17 1004.76 1005.31 1005.84 1006.33 1006.81 1007.28 1007.76 1008.26 1008.77 1009.29 1009.81 1010.29 1010.73 1011.11 1011.43 1011.68 1011.87 1012.02 1012.15 1012.27 1012.40 1012.52 1012.64 1012.74 1012.81 1012.81 1012.76 1012.63 1012.45 1012.24 1012.02 1011.83
1001.73 1001.08 1000.64 1000.43 1000.45 1000.68 1001.08 1001.61 1002.24 1002.90 1003.57 1004.21 1004.82 1005.38 1005.91 1006.42 1006.92 1007.43 1007.94 1008.46 1008.97 1009.46 1009.90 1010.29 1010.60 1010.85 1011.04 1011.18 1011.29 1011.40 1011.53 1011.68 1011.85 1012.03 1012.21 1012.35 1012.45 1012.48 1012.44 1012.34 1012.21 1012.05 1011.93
1001.20 1000.45 999.93 999.66 999.64 999.86 1000.27 1000.84 1001.50 1002.22 1002.94 1003.64 1004.30 1004.92 1005.50 1006.06 1006.61 1007.15 1007.69 1008.22 1008.72 1009.18 1009.59 1009.92 1010.17 1010.35 1010.47 1010.56 1010.64 1010.73 1010.85 1011.01 1011.21 1011.44 1011.68 1011.89 1012.07 1012.18 1012.23 1012.22 1012.16 1012.08 1012.02
1000.80 999.97 999.38 999.06 999.00 999.19 999.59 1000.16 1000.84 1001.57 1002.33 1003.07 1003.78 1004.46 1005.10 1005.72 1006.32 1006.90 1007.47 1008.02 1008.52 1008.97 1009.34 1009.63 1009.83 1009.96 1010.03 1010.07 1010.11 1010.18 1010.29 1010.45 1010.67 1010.92 1011.19 1011.46 1011.68 1011.86 1011.98 1012.04 1012.06 1012.06 1012.07
1000.58 999.72 999.09 998.72 998.61 998.76 999.12 999.65 1000.31 1001.03 1001.79 1002.55 1003.29 1004.01 1004.70 1005.36 1006.01 1006.64 1007.25 1007.82 1008.33 1008.77 1009.12 1009.38 1009.56 1009.65 1009.69 1009.71 1009.72 1009.77 1009.86 1010.01 1010.22 1010.47 1010.74 1011.02 1011.27 1011.49 1011.66 1011.77 1011.85 1011.92 1011.99
1000.61 999.74 999.09 998.68 998.53 998.62 998.92 999.38 999.98 1000.66 1001.39 1002.13 1002.87 1003.59 1004.30 1005.00 1005.67 1006.33 1006.96 1007.54 1008.06 1008.51 1008.86 1009.12 1009.28 1009.37 1009.41 1009.41 1009.41 1009.43 1009.50 1009.63 1009.81 1010.04 1010.29 1010.54 1010.79 1011.01 1011.20 1011.35 1011.48 1011.61 1011.74
1000.87 1000.04 999.40 998.98 998.78 998.80 999.02 999.40 999.91 1000.51 1001.17 1001.85 1002.54 1003.23 1003.92 1004.61 1005.28 1005.93 1006.56 1007.14 1007.66 1008.11 1008.48 1008.74 1008.92 1009.02 1009.07 1009.08 1009.08 1009.09 1009.14 1009.23 1009.37 1009.54 1009.74 1009.96 1010.17 1010.38 1010.56 1010.73 1010.90 1011.06 1011.25
1001.34 1000.58 999.98 999.55 999.33 999.29 999.42 999.71 1000.11 1000.60 1001.15 1001.73 1002.34 1002.96 1003.58 1004.20 1004.83 1005.44 1006.03 1006.59 1007.10 1007.54 1007.91 1008.19 1008.39 1008.52 1008.59 1008.62 1008.63 1008.64 1008.67 1008.72 1008.80 1008.91 1009.05 1009.21 1009.37 1009.54 1009.71 1009.89 1010.07 1010.27 1010.50
Thickness
5798 5797 5796 5793 5789 5785 5782 5779 5777 5774 5772 5768 5764 5760 5758 5758 5757 5756 5755 5754 5752 5752 5752 5751 5750 5748 5747 5746 5745 5744 5742 5740 5740 5738 5737 5739 5741 5741 5741 5742 5742 5742 5741
5798 5798 5796 5794 5790 5787 5784 5781 5779 5777 5774 5770 5767 5764 5761 5759 5758 5757 5755 5755 5754 5753 5751 5751 5749 5747 5746 5746 5745 5743 5741 5739 5740 5737 5732 5730 5733 5737 5740 5740 5740 5740 5740
5801 5800 5798 5796 5793 5789 5787 5785 5781 5779 5776 5773 5769 5765 5762 5759 5757 5755 5754 5755 5754 5753 5752 5752 5750 5748 5747 5745 5744 5743 5741 5738 5738 5738 5734 5727 5725 5729 5735 5737 5738 5738 5738
5807 5803 5801 5798 5796 5794 5791 5787 5784 5781 5778 5775 5770 5765 5760 5756 5756 5755 5754 5755 5754 5753 5753 5752 5750 5748 5747 5746 5745 5744 5742 5740 5737 5737 5736 5734 5732 5727 5726 5731 5734 5736 5736
5812 5808 5805 5803 5800 5798 5794 5790 5786 5782 5780 5776 5772 5768 5763 5760 5758 5757 5755 5754 5753 5753 5753 5752 5751 5749 5747 5746 5745 5744 5743 5741 5738 5736 5735 5733 5731 5730 5726 5725 5728 5731 5733
5815 5811 5809 5805 5802 5799 5796 5791 5787 5783 5781 5778 5775 5770 5766 5762 5758 5756 5754 5753 5753 5753 5753 5752 5751 5749 5747 5746 5745 5744 5743 5741 5740 5738 5736 5733 5731 5729 5727 5725 5725 5725 5728
5816 5812 5808 5804 5802 5799 5796 5792 5788 5783 5781 5779 5776 5773 5770 5766 5761 5758 5755 5754 5752 5752 5752 5752 5750 5749 5748 5746 5745 5744 5742 5741 5740 5738 5736 5735 5733 5732 5730 5727 5725 5723 5725
5817 5814 5812 5808 5805 5801 5798 5794 5790 5786 5783 5780 5777 5775 5772 5768 5764 5761 5758 5755 5754 5753 5753 5752 5751 5749 5748 5746 5745 5743 5742 5741 5740 5739 5737 5735 5734 5733 5731 5728 5725 5721 5720
5817 5815 5814 5812 5808 5804 5800 5797 5792 5788 5785 5782 5778 5775 5773 5769 5766 5763 5760 5757 5756 5755 5753 5752 5750 5749 5747 5746 5744 5743 5741 5740 5739 5738 5737 5735 5735 5734 5732 5730 5728 5723 5718
5816 5815 5814 5812 5810 5807 5802 5798 5794 5790 5786 5783 5780 5777 5773 5770 5767 5764 5760 5758 5757 5755 5753 5751 5750 5748 5747 5745 5743 5742 5741 5739 5738 5737 5735 5734 5734 5733 5732 5731 5728 5726 5722
5815 5815 5813 5812 5810 5806 5802 5797 5794 5790 5786 5783 5780 5777 5773 5771 5768 5764 5762 5759 5757 5755 5753 5751 5749 5747 5745 5744 5742 5740 5739 5737 5736 5735 5734 5733 5732 5731 5730 5728 5726 5724 5721
5814 5813 5811 5809 5806 5802 5799 5796 5793 5790 5786 5783 5779 5776 5773 5770 5766 5764 5762 5760 5757 5755 5752 5750 5748 5746 5744 5743 5741 5739 5737 5735 5733 5733 5732 5731 5731 5729 5728 5726 5724 5722 5719
5809 5808 5806 5804 5802 5800 5797 5794 5791 5788 5785 5781 5777 5773 5771 5768 5765 5763 5761 5758 5756 5754 5751 5749 5746 5744 5742 5741 5739 5737 5735 5733 5732 5731 5729 5728 5727 5726 5725 5723 5721 5719 5717
5803 5802 5801 5800 5800 5798 5796 5793 5789 5786 5782 5778 5774 5770 5768 5766 5764 5762 5759 5756 5754 5751 5749 5747 5744 5743 5741 5739 5737 5735 5733 5731 5729 5728 5727 5726 5724 5723 5721 5720 5718 5716 5713
5797 5797 5796 5796 5796 5794 5792 5790 5787 5784 5780 5775 5771 5769 5767 5764 5762 5759 5757 5754 5751 5749 5746 5743 5741 5740 5739 5737 5735 5733 5731 5728 5726 5725 5724 5723 5721 5720 5719 5717 5714 5712 5709
5793 5793 5793 5792 5791 5790 5789 5787 5783 5780 5777 5771 5768 5766 5763 5760 5758 5756 5754 5751 5748 5745 5742 5740 5738 5736 5735 5734 5732 5730 5728 5725 5722 5721 5720 5719 5718 5717 5715 5713 5711 5709 5706
5789 5789 5789 5789 5788 5787 5785 5783 5781 5777 5773 5769 5766 5763 5761 5758 5755 5753 5750 5747 5745 5742 5739 5737 5734 5732 5731 5730 5728 5726 5724 5722 5720 5717 5716 5715 5715 5713 5711 5709 5706 5704 5702
5784 5785 5785 5785 5784 5784 5782 5780 5777 5773 5769 5766 5762 5760 5757 5755 5752 5749 5746 5743 5740 5737 5735 5733 5731 5729 5727 5725 5724 5722 5720 5718 5716 5713 5712 5710 5709 5708 5705 5703 5700 5698 5696
5780 5781 5782 5781 5779 5778 5777 5775 5771 5768 5764 5761 5759 5756 5754 5750 5747 5744 5741 5739 5736 5733 5731 5729 5727 5724 5722 5720 5719 5717 5715 5712 5710 5709 5707 5706 5704 5702 5699 5697 5694 5692 5690
5774 5775 5776 5775 5773 5772 5770 5767 5764 5761 5759 5758 5755 5752 5749 5746 5743 5740 5737 5734 5731 5728 5726 5724 5721 5719 5718 5715 5714 5712 5710 5707 5705 5703 5701 5699 5697 5696 5693 5691 5689 5686 5683
5767 5769 5768 5767 5766 5765 5763 5759 5757 5755 5755 5752 5749 5747 5744 5741 5738 5735 5732 5728 5725 5722 5720 5717 5715 5714 5712 5711 5708 5706 5705 5702 5699 5697 5696 5694 5691 5689 5687 5685 5683 5680 5677
5759 5760 5760 5759 5759 5758 5756 5753 5751 5751 5749 5746 5743 5740 5737 5735 5733 5728 5726 5722 5718 5715 5712 5710 5709 5708 5707 5705 5704 5701 5699 5697 5694 5692 5690 5688 5685 5682 5680 5678 5676 5673 5670
5749 5750 5750 5750 5752 5751 5750 5746 5745 5743 5741 5738 5735 5733 5730 5728 5725 5722 5719 5715 5711 5708 5706 5704 5703 5703 5701 5700 5697 5695 5693 5690 5689 5687 5684 5681 5678 5675 5673 5671 5668 5666 5664
5739 5740 5740 5740 5741 5742 5742 5741 5739 5736 5733 5729 5727 5725 5722 5719 5717 5714 5712 5708 5704 5702 5700 5699 5698 5697 5696 5693 5691 5688 5686 5684 5682 5680 5677 5673 5671 5668 5666 5663 5661 5659 5657
5729 5730 5730 5731 5731 5732 5732 5732 5731 5728 5725 5722 5718 5716 5713 5711 5708 5706 5704 5701 5699 5697 5695 5694 5693 5691 5689 5689 5685 5682 5680 5678 5675 5672 5669 5667 5664 5661 5658 5656 5653 5651 5649
5717 5719 5719 5720 5721 5722 5722 5722 5721 5720 5716 5712 5710 5708 5705 5703 5701 5698 5695 5694 5692 5690 5689 5688 5686 5686 5684 5682 5679 5676 5673 5670 5666 5664 5662 5660 5658 5655 5652 5649 5646 5644 5642